Voltar ao catálogo

COSMOS 249 DEB

AtivoLEO
NORAD 3923·DEBRIS·🇷🇺 Russia

Lançado Oct 20, 1968 de Baikonur Cosmodrome

Loading…

Próximas Passagens (próximas 24 horas)

TLE

AtualizadoSource: Space-Track

Época: Sep 14, 2026, 04:24 UTC

1 03923U 68091BR  26257.18370486  .00000333  00000-0  26662-3 0  9994
2 03923  62.2297 187.8431 0575351 229.2572 125.7131 13.45640240728594

Acompanhe COSMOS 249 DEB em tempo real com AllMySat

Download on the App Store